Погода в Маме

Погода в Маме : погода сейчас, прогноз погоды и архив. Всё, что Вы хотите узнать о погоде в Маме!

Поиск расширенной информации на нашем сайте:

Другие новости

Новости СМИ2

Главная страница сайта

Новости сайта

03.07.2017

Напоминаем, что на нашем специализированном сайте Метеоцентр.Азия вы можете получить высокодетализированные автоматические прогнозы погоды по пунктам России, СНГ и мира в авиационном формате (включающие направление и скорость ветра, видимость, явления погоды, количество и форму облачности, нижнюю и верхнюю границу облачности).

Рекомендуем: Подбор авто.

Погода в Маме - сегодня

Время (UTC), дата Ветер
(°,м/с) 
Видим.   Явления Облачность Т
(°С)
Тd
(°С)
f(%) Тe
(°С)
Pmin
(гПа)
dP
(гПа)
Po
(мм)
O2
(г/м3)
Тmin Tmax R s Состояние
почвы
06 21.11.17 320 (СЗ) 10 км  слаб. снег  10/3 1000 м средняя 
[Sc|As trans]
-16.7 -21.7 65 -21  1022.9  2.2  745  321           
09 21.11.17 320 (СЗ) 10 км  слаб. снег  10/0 средняя 
[As trans]
-18.6 -22.7 70 -21  1025.9  2.7  747  324           
12 21.11.17 350 (С) 10 км  слаб. снег  10/0 средняя 
[As op]
-18.1 -24 60 -21  1027.1  1.3  748  324    -15.3  0.2     
15 21.11.17 320 (СЗ) 20000 м  {снег}  10/0 средняя 
[Ac As]
-18.6 -25.4 55 -21  1028.3  1.1  748  325           
18 21.11.17 тихо ()   10 км  слаб. снег  10/0 средняя, верхняя 
[Ac trans|Cs]
-18.9 -23.8 65 -19  1028.4  0.1  749  326           
21 21.11.17 340 (С) 10 км  слаб. снег  10/0 средняя, верхняя 
[Ac trans|Cs]
-19.4 -24.3 65 -24  1028.4  749  326           
00 22.11.17 330 (СЗ) 5-10{10}  10 км  слаб. снег  10/0 средняя 
[As op]
-18.5 -24.4 60 -25  1028  -0.3  748  325  -20    0.2  35  равномерный
сухой снег
100% 
03 22.11.17 350 (С) 5{10}  4000 м  слаб. снег  10/4 1000 м средняя 
[Sc|As trans]
-17.9 -24.8 55 -24  1028.3  0.3  749  324           
06 22.11.17 320 (СЗ) 3{10}  4000 м  слаб. снег  10/0 средняя 
[As op]
-17.3 -22.3 65 -21  1028.1  -0.1  748  324           
09 22.11.17 340 (С) 10 км  слаб. снег  10/0 средняя 
[As op]
-17.1 -23 60 -22  1028.4  0.3  749  323           
12 22.11.17 310 (СЗ) 6-11{11}  10 км  слаб. снег  10/0 средняя 
[As op]
-17 -23.9 55 -24  1028.9  0.4  749  323    -17  0.8     
15 22.11.17 тихо ()   4000 м  слаб. снег  10/0 средняя 
[As op]
-16.9 -22.8 60 -17  1029.6  0.7  749  324           
18 22.11.17 290 (З) 4000 м  слаб. снег  10/0 средняя 
[As op]
-17.9 -22 70 -22  1030.1  0.4  750  325           
21 22.11.17 310 (СЗ) 10 км  слаб. снег  10/0 верхняя 
[Cs]
-20 -23.3 75 -23  1030.6  0.3  750  328           
00 23.11.17 270 (З) 10 км  слаб. снег  10/0 верхняя 
[Cs]
-21 -23.5 80 -21  1030.8  750  329  -21.5    0.5  35  равномерный
сухой снег
100% 
03 23.11.17 320 (СЗ) 10 км  слаб. снег  10/0 средняя, верхняя 
[Ac trans|Cs]
-20.4 -23.7 75 -23  1031.1  0.5  750  328           
06 23.11.17 290 (З) 10 км  слаб. снег  10/0 средняя, верхняя 
[Ac trans|Cs]
-18.8 -22.1 75 -23  1031.2  0.2  751  326           
09 23.11.17 320 (СЗ) 20000 м  в посл. час снег  10/0 средняя 
[As op]
-19.1 -22.4 75 -23  1031.6  0.4  751  327           
12 23.11.17 340 (С) 10 км  слаб. снег  10/0 средняя 
[As op]
-19.2 -22.5 75 -23  1031.9  0.3  751  327    -18.5  0.4     
15 23.11.17 300 (СЗ) 10 км  слаб. снег  10/0 средняя 
[As op]
-20.6 -23.9 75 -23  1032.2  751  329           
18 23.11.17 280 (З) 10 км  слаб. снег  10/0 верхняя 
[Cs]
-24 -26.5 80 -29  1033.1  0.5  751  334           
21 23.11.17 270 (З) 10 км  слаб. снег  10/0 верхняя 
[Cs]
-24.8 -27.3 80 -28  1033.4  0.1  752  335           
00 24.11.17 280 (З) 10 км  слаб. снег  10/0 верхняя 
[Cs]
-30.7 -33.6 76 -31  1034.5  0.5  752  343  -31    0.3  36  равномерный
сухой снег
100% 
03 24.11.17 тихо ()   20000 м  {снег}  5/0 средняя, верхняя 
[Ac lent|Ci fib]
-31 -34.1 74 -31  1034.7  0.1  752  344  -34.3         
06 24.11.17 тихо ()   20000 м  {снег}  3/0 верхняя 
[Ci fib]
-29.6 -33.3 70 -30  1033.6  -1  751  341           
Время (UTC), дата Ветер
(°,м/с) 
Видим.   Явления Облачность Т
(°С)
Тd
(°С)
f(%) Тe
(°С)
Pmin
(гПа)
dP
(гПа)
Po
(мм)
O2
(г/м3)
Тmin Tmax R s Состояние
почвы

Для получения пояснительной информации подведите курсор к названию столбца.

ПОГОДА в Маме - архив

Всё, что Вы хотите узнать о погоде в Маме - удобно и подробно!

Выберите нужную дату (начиная с 1 января 2015* года) и нажмите кнопку "Найти".
Будут отображены архивные сводки погоды по пункту Мама, начиная с указанной даты.


Отображать данные в формате CSV (для использования в таблицах Excel)


Внимание! Наш архив погоды предназначен исключительно для личного некоммерческого использования в познавательных целях. Если Вам необходимы официальные справки о состоянии погоды (для производственных, юридических, коммерческих и т.п. целей), обращайтесь в органы Росгидромета.

*Примечание: данная дата относится к архиву по метеостанциям СССР (Россия, СНГ, Балтия).
Архив по метеостанциям Зарубежной Европы и Азии (кроме Китая) хранится 10 дней, по другим регионам земного шара (Китай, Африка, Америка, Австралия, Океания) - 1 день.

Мама - район местоположения метеостанции


Название, широта, долгота, высота метеостанции:
Мама 58.3°ш. 112.9°д. 224 м над ур. моря [Российская Федерация]

Дополнительная информация

В oтличие oт бoльшинства пoгoдных сайтoв мы публикуем пoдрoбную метеoинфoрмацию в детальнoм прoфессиoнальнoм фoрмате.

Характеристики температуры и влажнoсти вoздуха измеряются на высoте 2 м в тени вдали oт зданий и деревьев.
Скoрoсть ветра измеряется на высoте 10 м (на урoвне рoста челoвека скoрoсть ветра ниже в 1.5-2 раза). Если метеoстанция нахoдится в гoрoде или в лесу, тo скoрoсть ветра занижена на 2-4 м/с пo сравнению с oткрытым местoм. Скoрoсть ветра над акватoриями крупных рек и oзёр, а также на вершинах хoлмoв на 2-5 м/с выше, чем в oбычных услoвиях.
Атмoсфернoе давление в разных тoчках местнoсти мoжет значительнo oтличаться oт давления на метеoстанции, в зависимoсти oт услoвий рельефа (при пoдъёме на 10 м давление пoнижается примернo на 1 мм рт.ст.).